| time (UTC) | temp C | wind direction | speed KPH | gust KPH | rain 1hr cm | rain 24hr cm | rain mn cm | humidity % | barometer mb |
| 20260505041603 | 22 | 0 | 0.0 | 6.4 | 0.00 | 0.00 | 0.00 | 83 | 1012.0 |
| 20260505040104 | 22 | 0 | 0.0 | 9.7 | 0.00 | 0.00 | 0.00 | 83 | 1011.9 |
| 20260505034611 | 22 | 0 | 0.0 | 9.7 | 0.00 | 0.00 | 0.00 | 82 | 1012.2 |
| 20260505033055 | 22 | 239 | 0.0 | 6.4 | 0.00 | 0.00 | 0.00 | 82 | 1012.0 |
| 20260505031606 | 22 | 0 | 0.0 | 6.4 | 0.00 | 0.00 | 0.00 | 82 | 1012.1 |
| 20260505030122 | 22 | 250 | 0.0 | 4.8 | 0.00 | 0.00 | 0.00 | 81 | 1012.1 |
| 20260505024610 | 22 | 0 | 1.6 | 6.4 | 0.00 | 0.00 | 0.00 | 80 | 1012.1 |
| 20260505023054 | 22 | 209 | 0.0 | 6.4 | 0.00 | 0.00 | 0.00 | 81 | 1012.1 |
| 20260505021554 | 22 | 0 | 0.0 | 8.0 | 0.00 | 0.00 | 0.00 | 80 | 1012.0 |
| 20260505020104 | 22 | 192 | 1.6 | 8.0 | 0.00 | 0.00 | 0.00 | 80 | 1011.8 |
| 20260505014551 | 22 | 221 | 0.0 | 11.3 | 0.00 | 0.00 | 0.00 | 80 | 1011.8 |
| 20260505013050 | 22 | 0 | 1.6 | 11.3 | 0.00 | 0.00 | 0.00 | 79 | 1011.9 |
| 20260505011556 | 22 | 207 | 0.0 | 4.8 | 0.00 | 0.00 | 0.00 | 79 | 1011.9 |
| 20260505010110 | 22 | 0 | 0.0 | 6.4 | 0.00 | 0.00 | 0.00 | 78 | 1011.7 |
| 20260505004620 | 23 | 194 | 0.0 | 9.7 | 0.00 | 0.00 | 0.00 | 77 | 1011.7 |
| 20260505003100 | 23 | 0 | 0.0 | 4.8 | 0.00 | 0.00 | 0.00 | 76 | 1011.7 |
| 20260505001552 | 23 | 0 | 1.6 | 4.8 | 0.00 | 0.00 | 0.00 | 75 | 1011.8 |
| 20260505000104 | 23 | 0 | 1.6 | 9.7 | 0.00 | 0.00 | 0.00 | 75 | 1011.8 |
| 20260504234555 | 23 | 276 | 1.6 | 11.3 | 0.00 | 0.00 | 0.00 | 75 | 1012.0 |
| 20260504233051 | 24 | 181 | 0.0 | 8.0 | 0.00 | 0.00 | 0.00 | 74 | 1012.1 |
| 20260504231620 | 24 | 0 | 0.0 | 12.9 | 0.00 | 0.00 | 0.00 | 73 | 1012.2 |
| 20260504230053 | 24 | 184 | 0.0 | 16.1 | 0.00 | 0.00 | 0.00 | 72 | 1012.4 |
| 20260504224550 | 25 | 219 | 0.0 | 12.9 | 0.00 | 0.00 | 0.00 | 72 | 1012.4 |
| 20260504223054 | 25 | 186 | 1.6 | 8.0 | 0.00 | 0.00 | 0.00 | 71 | 1012.8 |
| 20260504221631 | 25 | 202 | 1.6 | 8.0 | 0.00 | 0.00 | 0.00 | 70 | 1012.7 |
| 20260504220054 | 25 | 209 | 1.6 | 14.5 | 0.00 | 0.00 | 0.00 | 68 | 1012.7 |
| 20260504214551 | 26 | 180 | 1.6 | 8.0 | 0.00 | 0.00 | 0.00 | 68 | 1013.0 |
| 20260504213059 | 26 | 0 | 1.6 | 9.7 | 0.00 | 0.00 | 0.00 | 66 | 1013.2 |
| 20260504211555 | 27 | 196 | 1.6 | 8.0 | 0.00 | 0.00 | 0.00 | 65 | 1013.3 |
| 20260504210054 | 27 | 0 | 1.6 | 20.9 | 0.00 | 0.00 | 0.00 | 64 | 1013.7 |
| 20260504204555 | 26 | 226 | 1.6 | 9.7 | 0.00 | 0.00 | 0.00 | 66 | 1013.5 |
| 20260504203053 | 26 | 88 | 1.6 | 14.5 | 0.00 | 0.00 | 0.00 | 66 | 1013.8 |
| 20260504201555 | 26 | 0 | 1.6 | 14.5 | 0.00 | 0.00 | 0.00 | 65 | 1014.0 |
| 20260504200055 | 27 | 173 | 0.0 | 11.3 | 0.00 | 0.00 | 0.00 | 65 | 1014.1 |
| 20260504194602 | 27 | 303 | 1.6 | 11.3 | 0.00 | 0.00 | 0.00 | 65 | 1014.4 |
| 20260504193053 | 27 | 0 | 0.0 | 8.0 | 0.00 | 0.00 | 0.00 | 65 | 1014.7 |
| 20260504191618 | 27 | 177 | 1.6 | 9.7 | 0.00 | 0.00 | 0.00 | 64 | 1014.7 |
| 20260504190053 | 27 | 186 | 0.0 | 11.3 | 0.00 | 0.00 | 0.00 | 66 | 1014.8 |
| 20260504184605 | 27 | 184 | 1.6 | 9.7 | 0.00 | 0.00 | 0.00 | 65 | 1014.9 |
| 20260504183054 | 26 | 0 | 1.6 | 11.3 | 0.00 | 0.00 | 0.00 | 66 | 1014.9 |
| 20260504181556 | 26 | 0 | 0.0 | 14.5 | 0.00 | 0.00 | 0.00 | 67 | 1015.1 |
| 20260504180054 | 26 | 248 | 1.6 | 22.5 | 0.00 | 0.00 | 0.00 | 65 | 1015.3 |
| 20260504174552 | 26 | 273 | 0.0 | 9.7 | 0.00 | 0.00 | 0.00 | 65 | 1015.4 |
| 20260504173054 | 26 | 0 | 1.6 | 12.9 | 0.00 | 0.00 | 0.00 | 65 | 1015.7 |
| 20260504171553 | 25 | 0 | 3.2 | 16.1 | 0.00 | 0.00 | 0.00 | 69 | 1016.1 |
| 20260504140105 | 22 | 253 | 1.6 | 11.3 | 0.00 | 0.00 | 0.00 | 68 | 1017.0 |
| 20260504081552 | 17 | 0 | 0.0 | 0.0 | 0.00 | 0.00 | 0.00 | 75 | 1017.3 |
| 20260504060104 | 16 | 0 | 0.0 | 0.0 | 0.00 | 0.00 | 0.00 | 80 | 1018.7 |